SCF315 VHHH-ZSHC

Flight info

Callsign SCF315
Flight time N/A
Altitude 33000
Route LEKEN V601 DOTMI/K0826S1005 A470 UGAGO UGAGO91
Aircraft B38M/M-SDE1FGHILORVWXY/HB1

Departure

Time N/A
Airport Hong Kong International Airport (VHHH)

Arrival

Time 2026-04-27 02:41
Airport Hangzhou Xiaoshan International Airport (ZSHC)
Time Latitude Longitude Altitude Speed Heading
2026-04-27 01:24 22.68817 116.17141 30027 ft 501 kts
2026-04-27 01:25 22.72212 116.18042 30296 ft 506 kts 18°
2026-04-27 01:25 22.75333 116.19827 30556 ft 512 kts 33°
2026-04-27 01:25 22.78183 116.22152 30779 ft 513 kts 34°
2026-04-27 01:25 22.81039 116.24479 30988 ft 514 kts 35°
2026-04-27 01:26 22.83881 116.26822 31240 ft 513 kts 35°
2026-04-27 01:26 22.86719 116.29176 31477 ft 514 kts 35°
2026-04-27 01:26 22.89556 116.31531 31729 ft 513 kts 35°
2026-04-27 01:26 22.92389 116.33885 31987 ft 513 kts 35°
2026-04-27 01:27 22.95223 116.36233 32247 ft 513 kts 35°
2026-04-27 01:27 22.98063 116.38574 32514 ft 512 kts 35°
2026-04-27 01:27 23.00898 116.40915 32779 ft 512 kts 35°
2026-04-27 01:27 23.03730 116.43255 33031 ft 512 kts 35°
2026-04-27 01:28 23.06565 116.45599 33150 ft 512 kts 35°
2026-04-27 01:28 23.12218 116.50276 33139 ft 510 kts 35°
2026-04-27 01:29 23.17866 116.54954 33133 ft 510 kts 35°
2026-04-27 01:29 23.23507 116.59632 33149 ft 509 kts 35°
2026-04-27 01:30 23.29133 116.64301 33135 ft 509 kts 35°
2026-04-27 01:30 23.34761 116.68978 33141 ft 509 kts 35°
2026-04-27 01:31 23.40329 116.73610 33147 ft 509 kts 35°
2026-04-27 01:31 23.45711 116.78616 33145 ft 510 kts 45°
2026-04-27 01:32 23.50639 116.84194 33144 ft 509 kts 45°
2026-04-27 01:32 23.55533 116.89745 33140 ft 508 kts 44°
2026-04-27 01:33 23.60421 116.95298 33137 ft 507 kts 44°
2026-04-27 01:33 23.65274 117.00818 33145 ft 508 kts 44°
2026-04-27 01:34 23.70162 117.06384 33146 ft 508 kts 44°
2026-04-27 01:34 23.75032 117.11936 33150 ft 503 kts 45°
2026-04-27 01:35 23.80187 117.17060 33165 ft 502 kts 39°
2026-04-27 01:35 23.84756 117.21507 33142 ft 500 kts 40°
2026-04-27 01:36 23.89315 117.25986 33156 ft 499 kts 40°
2026-04-27 01:36 23.94212 117.30799 33119 ft 500 kts 40°
2026-04-27 01:37 23.98448 117.34970 33164 ft 502 kts 40°
2026-04-27 01:37 24.03315 117.39765 33121 ft 504 kts 40°
2026-04-27 01:38 24.08518 117.44897 33141 ft 504 kts 40°
2026-04-27 01:38 24.13392 117.49730 33121 ft 503 kts 43°
2026-04-27 01:39 24.18068 117.55228 33194 ft 507 kts 46°
2026-04-27 01:39 24.22893 117.61002 33132 ft 504 kts 46°
2026-04-27 01:40 24.27629 117.66689 33143 ft 505 kts 46°
2026-04-27 01:40 24.32329 117.72339 33135 ft 505 kts 46°
2026-04-27 01:41 24.37026 117.77991 33143 ft 505 kts 46°
2026-04-27 01:41 24.41657 117.83572 33166 ft 504 kts 45°
2026-04-27 01:42 24.46375 117.89263 33130 ft 502 kts 45°
2026-04-27 01:42 24.51075 117.94939 33141 ft 502 kts 45°
2026-04-27 01:43 24.55773 118.00612 33143 ft 502 kts 44°
2026-04-27 01:43 24.60619 118.06119 33142 ft 502 kts 44°
2026-04-27 01:44 24.65465 118.11652 33159 ft 502 kts 43°
2026-04-27 01:44 24.70302 118.17177 33144 ft 502 kts 43°
2026-04-27 01:45 24.74335 118.21769 33142 ft 502 kts 43°
2026-04-27 01:45 24.79998 118.28228 33156 ft 502 kts 43°
2026-04-27 01:46 24.84841 118.33759 33144 ft 502 kts 43°
2026-04-27 01:46 24.88868 118.38364 33146 ft 503 kts 43°
2026-04-27 01:47 24.93720 118.43917 33155 ft 503 kts 43°
2026-04-27 01:47 24.98568 118.49473 33146 ft 503 kts 44°
2026-04-27 01:48 25.03422 118.55042 33151 ft 503 kts 44°
2026-04-27 01:48 25.08266 118.60606 33151 ft 503 kts 44°
2026-04-27 01:49 25.13005 118.66309 33135 ft 504 kts 45°
2026-04-27 01:49 25.17747 118.72019 33157 ft 505 kts 45°
2026-04-27 01:50 25.22491 118.77733 33160 ft 505 kts 45°
2026-04-27 01:50 25.27239 118.83461 33147 ft 505 kts 45°
2026-04-27 01:51 25.31977 118.89183 33159 ft 505 kts 45°
2026-04-27 01:51 25.36783 118.94837 33162 ft 504 kts 44°
2026-04-27 01:52 25.41612 119.00474 33145 ft 505 kts 43°
2026-04-27 01:52 25.46401 119.06077 33149 ft 505 kts 43°
2026-04-27 01:53 25.51127 119.11613 33154 ft 505 kts 43°
2026-04-27 01:53 25.55508 119.16745 33140 ft 505 kts 43°
2026-04-27 01:54 25.60320 119.22401 33150 ft 505 kts 43°
2026-04-27 01:54 25.65007 119.27910 33161 ft 505 kts 43°
2026-04-27 01:55 25.69467 119.33161 33138 ft 505 kts 43°
2026-04-27 01:55 25.74754 119.38275 33131 ft 492 kts 22°
2026-04-27 01:56 25.84348 119.41981 33148 ft 487 kts 12°
2026-04-27 01:56 25.90812 119.44204 33145 ft 486 kts 12°
2026-04-27 01:57 25.97286 119.46406 33147 ft 487 kts 12°
2026-04-27 01:57 26.03765 119.48612 33153 ft 487 kts 12°
2026-04-27 01:58 26.10246 119.50821 33135 ft 487 kts 12°
2026-04-27 01:58 26.16736 119.53035 33143 ft 488 kts 12°
2026-04-27 01:59 26.23269 119.54776 33115 ft 472 kts 356°
2026-04-27 01:59 26.29831 119.54900 33121 ft 472 kts 355°
2026-04-27 02:00 26.36392 119.55000 33151 ft 472 kts 355°
2026-04-27 02:00 26.42958 119.55047 33156 ft 471 kts 354°
2026-04-27 02:01 26.49428 119.55088 33154 ft 471 kts 355°
2026-04-27 02:01 26.55609 119.55125 33147 ft 469 kts 354°
2026-04-27 02:02 26.61592 119.55167 33147 ft 466 kts 354°
2026-04-27 02:02 26.68194 119.55208 33156 ft 468 kts 354°
2026-04-27 02:03 26.74702 119.55251 33155 ft 468 kts 354°
2026-04-27 02:03 26.81213 119.55293 33158 ft 468 kts 354°
2026-04-27 02:04 26.87726 119.55335 33162 ft 468 kts 354°
2026-04-27 02:04 26.94237 119.55377 33156 ft 468 kts 354°
2026-04-27 02:05 27.00750 119.55420 33155 ft 468 kts 354°
2026-04-27 02:05 27.07274 119.55461 33149 ft 469 kts 354°
2026-04-27 02:06 27.13807 119.55504 33175 ft 470 kts 354°
2026-04-27 02:06 27.20341 119.55546 33168 ft 469 kts 354°
2026-04-27 02:07 27.26868 119.55579 33160 ft 469 kts 354°
2026-04-27 02:07 27.33356 119.55591 33166 ft 471 kts 354°
2026-04-27 02:08 27.39914 119.55604 33168 ft 471 kts 354°
2026-04-27 02:08 27.46476 119.55633 33162 ft 471 kts 354°
2026-04-27 02:09 27.53036 119.55671 33147 ft 472 kts 354°
2026-04-27 02:09 27.59552 119.55707 33152 ft 472 kts 354°
2026-04-27 02:10 27.66158 119.55744 33159 ft 472 kts 354°
2026-04-27 02:10 27.72720 119.55781 33150 ft 471 kts 354°
2026-04-27 02:11 27.79281 119.55817 33124 ft 472 kts 354°
2026-04-27 02:11 27.85845 119.55859 33100 ft 471 kts 355°
2026-04-27 02:12 27.92405 119.55902 33146 ft 473 kts 355°
2026-04-27 02:12 27.98980 119.56002 33126 ft 472 kts 355°
2026-04-27 02:13 28.05534 119.56098 33125 ft 472 kts 355°
2026-04-27 02:13 28.12111 119.56316 33137 ft 474 kts 357°
2026-04-27 02:14 28.18495 119.56674 33131 ft 474 kts 357°
2026-04-27 02:14 28.25101 119.57028 33131 ft 474 kts 357°
2026-04-27 02:15 28.31674 119.57379 33129 ft 473 kts 356°
2026-04-27 02:15 28.38254 119.57731 33130 ft 474 kts 356°
2026-04-27 02:16 28.44830 119.58085 33139 ft 473 kts 357°
2026-04-27 02:16 28.51373 119.58491 33122 ft 473 kts 357°
2026-04-27 02:17 28.57954 119.58896 33128 ft 474 kts 357°
2026-04-27 02:17 28.64520 119.59306 33142 ft 472 kts 356°
2026-04-27 02:18 28.71083 119.59708 33144 ft 471 kts 357°
2026-04-27 02:18 28.77559 119.60110 33145 ft 470 kts 357°
2026-04-27 02:19 28.80795 119.60307 33026 ft 468 kts 357°
2026-04-27 02:19 28.84086 119.60509 33150 ft 469 kts 356°
2026-04-27 02:19 28.90304 119.60895 33129 ft 468 kts 356°
2026-04-27 02:20 28.96753 119.61293 33087 ft 470 kts 356°
2026-04-27 02:20 29.03280 119.61699 32996 ft 470 kts 357°
2026-04-27 02:21 29.06537 119.61903 32107 ft 470 kts 357°
2026-04-27 02:21 29.09836 119.62104 31043 ft 478 kts 357°
2026-04-27 02:21 29.13138 119.62305 30446 ft 472 kts 357°
2026-04-27 02:21 29.16431 119.62506 29325 ft 478 kts 357°
2026-04-27 02:22 29.19778 119.62711 28118 ft 484 kts 358°
2026-04-27 02:22 29.23145 119.62915 27182 ft 485 kts 358°
2026-04-27 02:22 29.26518 119.63122 26408 ft 483 kts 358°
2026-04-27 02:22 29.29852 119.63326 25697 ft 480 kts 358°
2026-04-27 02:23 29.33185 119.63530 24960 ft 478 kts 358°
2026-04-27 02:23 29.36499 119.63733 24257 ft 476 kts 358°
2026-04-27 02:23 29.39807 119.63936 23526 ft 476 kts 358°
2026-04-27 02:23 29.43112 119.64138 22688 ft 475 kts 359°
2026-04-27 02:24 29.46354 119.64342 22097 ft 470 kts 359°
2026-04-27 02:24 29.49604 119.64543 21391 ft 466 kts 358°
2026-04-27 02:24 29.52836 119.64737 20711 ft 463 kts 359°
2026-04-27 02:24 29.56026 119.64869 20171 ft 456 kts 357°
2026-04-27 02:25 29.59209 119.64959 19400 ft 457 kts 357°
2026-04-27 02:25 29.62363 119.65073 18916 ft 450 kts 359°
2026-04-27 02:25 29.65490 119.65283 18299 ft 449 kts 359°
2026-04-27 02:25 29.68585 119.65491 17783 ft 442 kts 359°
2026-04-27 02:26 29.71647 119.65690 16796 ft 445 kts 360°
2026-04-27 02:26 29.74751 119.65892 16094 ft 444 kts 360°
2026-04-27 02:26 29.77777 119.66063 15360 ft 429 kts 359°
2026-04-27 02:26 29.80726 119.66220 14393 ft 421 kts
2026-04-27 02:27 29.83623 119.66380 13471 ft 413 kts
2026-04-27 02:27 29.86415 119.67075 12512 ft 410 kts 20°
2026-04-27 02:27 29.88927 119.68526 11711 ft 399 kts 26°
2026-04-27 02:27 29.91303 119.69962 11691 ft 370 kts 26°
2026-04-27 02:28 29.93500 119.71289 11612 ft 347 kts 26°
2026-04-27 02:28 29.95570 119.72542 11511 ft 325 kts 26°
2026-04-27 02:28 29.97514 119.73718 11413 ft 305 kts 26°
2026-04-27 02:28 29.99340 119.74824 11327 ft 292 kts 26°
2026-04-27 02:29 30.01126 119.75906 11257 ft 291 kts 26°
2026-04-27 02:29 30.02868 119.77072 11118 ft 292 kts 38°
2026-04-27 02:29 30.04134 119.78835 10848 ft 290 kts 61°
2026-04-27 02:29 30.05072 119.80909 10609 ft 290 kts 60°
2026-04-27 02:30 30.06015 119.82941 10342 ft 283 kts 60°
2026-04-27 02:30 30.06919 119.84913 10081 ft 273 kts 60°
2026-04-27 02:30 30.07785 119.86818 9815 ft 263 kts 61°
2026-04-27 02:30 30.08617 119.88659 9525 ft 255 kts 60°
2026-04-27 02:31 30.09431 119.90464 9125 ft 251 kts 61°
2026-04-27 02:31 30.10232 119.92242 8674 ft 249 kts 61°
2026-04-27 02:31 30.11031 119.94018 8182 ft 250 kts 61°
2026-04-27 02:31 30.11833 119.95803 7696 ft 251 kts 61°
2026-04-27 02:32 30.12365 119.96987 7372 ft 251 kts 61°
2026-04-27 02:32 30.13421 119.99352 6745 ft 250 kts 61°
2026-04-27 02:32 30.14216 120.01130 6263 ft 249 kts 61°
2026-04-27 02:32 30.14748 120.02336 5942 ft 248 kts 64°
2026-04-27 02:33 30.14968 120.04909 5264 ft 251 kts 108°
2026-04-27 02:33 30.14034 120.06577 4754 ft 250 kts 141°
2026-04-27 02:33 30.12557 120.07595 4328 ft 244 kts 152°
2026-04-27 02:33 30.11681 120.08381 4089 ft 229 kts 129°
2026-04-27 02:34 30.11075 120.09919 4072 ft 196 kts 98°
2026-04-27 02:34 30.11290 120.11916 4043 ft 188 kts 69°
2026-04-27 02:34 30.11758 120.13229 3908 ft 169 kts 65°
2026-04-27 02:34 30.12084 120.14044 3897 ft 165 kts 64°
2026-04-27 02:35 30.12575 120.15236 3909 ft 164 kts 64°
2026-04-27 02:35 30.13074 120.16419 3916 ft 164 kts 63°
2026-04-27 02:35 30.13582 120.17597 3929 ft 163 kts 63°
2026-04-27 02:35 30.14087 120.18768 3905 ft 164 kts 62°
2026-04-27 02:36 30.14602 120.19948 3758 ft 165 kts 62°
2026-04-27 02:36 30.15109 120.21116 3700 ft 163 kts 62°
2026-04-27 02:36 30.15618 120.22274 3394 ft 160 kts 62°
2026-04-27 02:36 30.16128 120.23433 3186 ft 163 kts 61°
2026-04-27 02:37 30.16645 120.24584 3034 ft 163 kts 62°
2026-04-27 02:37 30.17163 120.25751 2751 ft 162 kts 62°
2026-04-27 02:37 30.17680 120.26925 2603 ft 165 kts 62°
2026-04-27 02:37 30.18202 120.28107 2377 ft 164 kts 62°
2026-04-27 02:38 30.18725 120.29289 2175 ft 166 kts 63°
2026-04-27 02:38 30.19245 120.30469 1958 ft 163 kts 63°
2026-04-27 02:38 30.19762 120.31639 1772 ft 163 kts 63°
2026-04-27 02:38 30.20282 120.32807 1525 ft 163 kts 64°
2026-04-27 02:39 30.20786 120.33956 1327 ft 160 kts 64°
2026-04-27 02:39 30.21298 120.35114 1107 ft 160 kts 64°
2026-04-27 02:39 30.21799 120.36243 904 ft 156 kts 64°
2026-04-27 02:39 30.22288 120.37354 765 ft 155 kts 65°
2026-04-27 02:40 30.22776 120.38456 539 ft 153 kts 64°
2026-04-27 02:40 30.23259 120.39554 323 ft 154 kts 65°
2026-04-27 02:40 30.23730 120.40652 111 ft 149 kts 64°
2026-04-27 02:40 30.24180 120.41678 39 ft 137 kts 64°
2026-04-27 02:41 30.24567 120.42510 32 ft 89 kts 63°
2026-04-27 02:41 30.24731 120.42998 35 ft 51 kts 85°
2026-04-27 02:41 30.24699 120.43326 35 ft 35 kts 122°
2026-04-27 02:41 30.24536 120.43336 34 ft 23 kts 233°
2026-04-27 02:42 30.24492 120.43284 34 ft 2 kts 217°
2026-04-27 02:42 30.24474 120.43271 34 ft 5 kts 208°
2026-04-27 02:42 30.24431 120.43250 34 ft 9 kts 202°
2026-04-27 02:42 30.24407 120.43238 34 ft 0 kts 203°